SCP
0 0 0 0 0 0 0 0 0 0 0 0 0 0 0 0 0 0 0 0 0 0 0 0 0 0 0 0 0 0 0 0 0 0 0 0 0 0 0 0 0 0 0 0
0 0 0 0 0 0 0 0 0 0 0 0 0 0 0 0 0 0 0 0 0 0 0 0 0 0 0 0 0 0 0 0 0 0 0 0 0 0 0 0 0 0 0 0
0 0 0 0 0 0 0 0 0 0 0 0 0 0 0 0 0 0 0 0 0 0 0 0 0 0 0 0 0 0 0 0 0 0 0 0 0 0 0 0 0 0 0 0
0 0 0 0 0 0 0 0 0 0 0 0 0 0 0 0 0 0 0 0 0 0 0 0 0 0 0 0 0 0 0 0 0 0 0 0 0 0 0 0 0 0 0 0
0 0 0 0 0 0 0 0 0 0 0 0 0 0 0 0 0 0 0 0 0 0 0 0 0 0 0 0 0 0 0 0 0 0 0 0 0 0 0 0 0 0 0 0
0 0 0 0 0 0 0 0 0 0 0 0 0 0 0 0 0 0 0 0 0 0 0 0 0 0 0 0 0 0 0 0 0 0 0 0 0 0 0 0 0 0 0 0
0 0 0 0 0 0 0 0 0 0 0 0 0 0 0 0 0 0 0 0 0 0 0 0 0 0 0 0 0 0 0 0 0 0 0 0 0 0 0 0 0 0 0 0
0 0 0 0 0 0 0 0 0 0 0 0 0 0 0 0 0 0 0 0 0 0 0 0 0 0 0 0 0 0 0 0 0 0 0 0 0 0 0 0 0 0 0 0
0 0 0 0 -0 -0 0 0 0 0 0 0 0 0 0 0 0 0 0 0 0 0 0 0 0 0 0 0 0 0 0 0 0 0 0 0 0 0 0 0 0 0 0 0
0 0 0 0 0 0 0 0 0 0 0 0 0 0 0 0 0 0 0 0 0 0 0 0 0 0 0 0 0 0 0 -0 -0 0 0 0 0 0 0 0 0 0 0 0
0 0 0 0 0 0 0 0 0 0 0 0 0 0 0 0 0 0 0 0 0 0 0 0 0 0 0 0 -0 -0 -0 -0 0 0 0 0 0 0 0 0 0 0 0 0
0 0 0 0 0 0 0 0 0 0 0 0 0 0 0 0 0 0 0 0 0 0 0 0 0 0 0 0 -0 -0 -0 0 0 0 0 0 0 0 0 0 0 0 0 0
0 0 0 0 0 0 0 0 0 0 0 0 0 0 0 0 0 0 0 0 0 0 0 0 0 0 0 0 0 0 0 0 0 0 0 0 0 0 0 0 0 0 0 0
0 0 0 0 0 0 0 0 0 0 0 0 0 0 0 0 0 0 0 0 0 0 0 0 0 0 0 0 0 0 0 0 0 0 0 0 0 0 0 0 0 0 0 0
-0 -0 -0 -0 0 0 0 0 0 0 0 0 0 0 0 0 0 0 0 0 0 0 0 0 0 0 0 0 0 0 0 0 0 0 0 0 0 0 0 0 0 0 0 0
-0 -0 -0 -0 0 0 0 0 0 0 0 0 0 0 0 0 0 0 0 0 0 0 0 0 0 0 0 0 0 0 0 0 0 0 0 0 0 0 0 0 0 0 0 0
0 0 0 -0 0 0 0 0 0 0 0 0 0 0 0 0 0 0 0 0 0 0 0 0 0 0 0 0 0 0 0 0 0 0 0 0 0 0 0 0 0 0 0 0
0 0 0 0 -0 -0 0 0 0 0 0 0 0 0 0 0 0 0 0 0 0 0 0 0 0 0 0 0 0 0 0 0 0 0 0 0 0 0 0 0 0 0 0 0
0 0 0 0 -0 -0 -0 0 0 0 0 0 0 0 0 0 0 0 0 0 0 0 0 0 0 0 0 0 0 0 0 0 0 0 0 0 0 0 0 0 0 0 0 0
0 0 0 0 0 -0 -0 0 0 0 0 0 0 0 0 0 0 0 0 0 0 0 0 0 0 0 0 0 0 0 0 0 0 0 0 0 0 0 0 0 0 0 0 0
0 0 0 0 0 0 0 0 0 0 0 0 0 0 0 0 0 0 0 0 0 0 0 0 0 0 0 0 0 0 0 0 0 0 0 0 0 0 0 0 0 0 0 0
0 0 0 0 0 0 0 0 0 0 0 0 0 0 0 0 0 0 0 0 0 0 0 0 0 0 0 0 0 0 0 0 0 0 0 0 0 0 0 0 0 0 0 0
-0 -0 0 0 0 0 0 0 0 -0 -0 0 0 0 0 0 0 0 0 0 0 0 0 0 0 0 0 0 0 0 0 0 0 0 0 0 0 0 0 0 0 0 0 0
-0 -0 0 0 0 0 0 0 0 0 0 -0 0 0 0 0 0 0 0 0 0 0 0 0 0 0 0 0 0 0 0 0 0 0 0 0 0 0 0 0 0 0 0 0
0 0 0 0 0 0 0 0 0 0 0 0 0 0 -0 0 0 0 0 0 0 0 0 0 0 0 0 0 0 0 0 0 0 0 0 0 0 0 0 0 0 0 0 0
0 0 0 0 0 0 0 0 0 0 0 0 0 0 0 0 0 0 0 0 0 0 0 0 0 0 0 0 0 0 0 0 0 0 0 0 0 0 0 0 0 0 0 0
0 0 0 0 0 0 0 0 0 0 0 0 0 0 0 0 0 0 0 0 0 0 0 0 0 0 0 0 0 0 0 0 0 0 0 0 0 0 0 0 0 0 0 0
Wind_Speed
5 6 4 5 6 5 6 7 7 7 7 8 8 8 8 8 8 8 8 10 11 11 10 9 9 8 8 8 8 8 8 7 6 6 5 6 5 5 5 5 5 4 4 4
3 5 5 5 7 6 6 5 6 5 6 6 4 4 5 7 9 10 10 11 11 11 11 11 11 10 9 8 8 8 8 7 7 6 6 6 6 5 5 5 4 5 4 4
3 4 1 4 6 6 4 4 5 6 7 3 3 6 8 9 10 11 11 10 11 11 11 11 11 11 11 9 8 8 8 8 7 7 7 6 7 6 5 5 5 5 4 4
1 1 3 6 3 3 3 2 2 3 3 4 6 6 5 7 9 10 10 10 11 10 10 9 9 9 9 8 8 8 8 8 8 8 7 7 6 6 4 4 4 4 4 3
2 1 4 5 2 1 3 2 1 2 1 1 2 4 1 3 6 9 10 9 9 9 10 10 10 10 10 9 8 8 8 8 8 8 8 7 7 6 5 4 4 3 3 4
3 2 4 5 5 3 3 1 3 1 2 1 5 3 4 4 4 5 6 6 7 7 8 9 9 10 11 10 9 9 9 8 8 8 9 8 7 6 4 5 4 4 3 3
4 3 6 6 5 2 3 4 3 1 3 3 4 5 4 3 4 4 5 5 7 8 9 10 10 11 11 10 10 9 8 8 8 8 8 7 6 5 5 5 5 4 3 2
4 3 6 4 2 3 4 3 1 1 2 2 2 1 2 4 4 5 5 5 6 7 7 7 10 12 11 10 9 8 8 8 7 7 7 7 7 5 5 6 5 4 3 1
5 5 4 2 1 1 2 1 1 1 1 3 2 2 3 4 4 5 6 5 5 7 7 6 8 11 11 9 8 9 9 8 7 7 6 6 7 6 5 5 5 4 3 2
1 2 2 1 1 2 1 1 0 1 2 3 3 2 3 4 4 4 5 5 5 7 8 7 7 8 9 9 10 10 10 8 7 7 6 5 5 5 5 5 5 4 4 3
1 2 1 3 2 2 2 3 3 3 2 3 4 3 4 4 3 4 4 4 6 7 8 7 7 6 7 9 10 9 9 7 6 6 6 5 4 4 6 6 7 7 6 5
4 5 4 2 2 1 3 3 3 3 3 2 3 3 3 3 3 4 4 4 5 5 6 6 7 7 7 8 10 10 8 7 6 5 5 5 4 2 1 3 5 7 7 6
3 2 3 2 1 2 3 2 3 3 3 2 2 3 4 3 3 4 4 5 6 6 6 6 7 7 6 7 9 9 8 7 5 5 5 5 5 5 3 0 1 4 6 7
2 3 2 1 1 2 3 3 4 4 4 3 3 3 4 4 4 4 3 3 4 5 6 6 7 6 6 7 8 8 7 7 6 5 5 5 5 5 4 4 3 2 3 5
1 2 3 2 3 3 3 4 5 5 4 4 4 4 4 4 4 3 3 4 5 5 5 5 6 5 5 7 8 7 6 5 5 4 4 4 4 4 3 4 3 2 1 1
2 3 4 4 4 3 3 4 4 2 2 3 3 3 3 4 4 3 3 5 6 5 4 5 5 5 6 7 7 6 5 6 6 4 4 3 3 4 3 3 3 3 3 3
5 3 3 3 2 2 2 2 2 2 2 3 3 3 4 5 5 4 3 3 3 3 4 4 4 4 5 6 7 5 4 5 6 4 4 4 4 4 4 4 3 3 3 3
5 4 4 4 4 3 2 2 2 3 2 2 4 4 4 4 3 2 2 3 4 3 2 2 4 5 5 5 5 4 4 4 4 4 4 3 3 3 3 3 3 3 2 2
4 4 3 3 3 3 3 2 2 2 2 3 4 4 3 3 2 2 3 4 4 2 0 1 5 5 4 5 6 4 4 4 3 3 3 4 3 3 3 3 3 3 3 2
4 4 4 4 4 4 3 2 3 3 2 4 4 4 3 2 2 3 3 2 1 2 2 3 4 4 4 4 6 4 4 4 4 3 3 3 3 3 3 3 3 3 2 2
4 4 4 4 3 3 3 2 3 2 2 3 4 3 2 1 2 2 3 1 2 0 2 4 3 3 3 4 5 3 4 4 4 4 4 3 3 3 3 3 2 3 3 2
3 3 3 3 3 2 2 2 2 3 2 2 2 2 2 1 1 1 1 1 1 2 2 2 2 4 5 6 4 3 3 3 3 3 3 3 3 3 2 2 2 2 2 2
3 3 3 3 3 2 2 2 2 2 2 2 2 2 2 1 2 2 1 1 1 3 2 2 3 6 7 5 3 3 3 3 3 3 3 3 3 3 3 2 2 2 2 2
3 2 2 2 3 3 2 2 2 2 2 2 1 1 2 2 1 0 1 2 3 3 2 3 5 6 5 3 3 3 3 2 2 2 2 2 2 2 2 2 2 2 2 2
3 3 3 3 3 1 1 1 2 2 2 2 2 2 1 1 2 1 1 2 4 4 3 3 5 5 4 2 3 3 2 2 2 2 2 2 2 2 2 2 2 2 1 2
3 2 2 2 2 1 1 1 1 1 1 1 1 1 1 1 1 1 1 2 3 4 3 2 2 3 2 2 2 3 2 2 2 2 2 2 2 2 2 2 2 1 1 1
3 2 2 2 1 1 1 2 2 1 1 1 0 1 1 1 1 1 1 1 2 2 2 2 2 2 2 2 2 2 2 2 2 2 2 2 2 2 2 2 1 1 1 1
Wind_Direction
229 239 232 233 245 228 202 194 200 230 228 238 226 210 199 187 176 169 171 174 176 177 176 174 171 170 168 167 163 155 150 152 157 153 141 133 129 125 120 115 115 116 107 95
277 255 253 261 254 237 226 214 214 227 253 245 222 178 172 176 173 177 183 183 182 178 172 174 174 171 167 166 165 156 155 159 154 145 139 137 135 127 120 116 110 107 106 104
268 286 321 277 251 217 217 225 193 212 237 229 175 178 183 181 178 182 186 185 181 181 178 177 175 170 169 169 160 154 156 156 154 149 146 146 140 129 129 128 118 113 114 109
224 27 232 247 255 171 170 247 217 195 211 200 197 190 179 179 180 184 184 184 184 181 177 174 168 163 160 155 155 155 156 158 158 152 150 147 140 140 144 138 133 130 129 122
139 210 276 292 301 192 175 254 251 167 199 226 141 83 17 202 184 186 186 186 183 179 172 168 164 159 151 154 156 158 162 166 165 157 153 151 151 155 153 141 136 134 136 128
140 168 238 257 286 277 117 289 309 167 172 143 108 123 244 226 183 173 173 171 168 163 157 161 163 154 153 160 161 169 171 168 164 159 157 159 160 156 149 142 140 136 125 127
159 203 256 266 290 60 125 240 277 202 175 155 158 194 217 183 167 157 156 159 156 155 162 169 162 157 161 165 175 175 163 157 159 159 159 156 150 148 143 134 126 125 125 119
150 190 250 289 66 140 210 253 224 187 173 159 162 136 133 146 151 147 140 142 148 152 159 162 162 161 164 175 174 155 150 153 160 158 158 151 144 144 141 137 133 135 128 116
176 207 244 290 179 209 163 147 239 171 170 128 123 128 140 145 147 152 150 149 148 151 150 154 163 163 168 172 155 148 150 156 159 153 150 150 150 150 147 148 150 158 157 169
131 268 290 351 20 21 48 111 54 114 127 129 130 144 137 140 144 148 150 151 145 142 148 158 164 164 164 158 154 151 155 159 157 152 149 150 153 158 160 166 167 172 177 184
152 250 34 14 8 29 44 50 55 52 83 125 126 134 139 140 146 154 152 148 145 152 158 163 159 153 151 154 152 151 154 157 157 156 156 156 161 175 179 191 186 181 188 185
206 215 176 222 289 81 79 59 60 62 51 57 114 138 132 134 137 142 144 140 141 145 151 156 153 151 152 155 154 151 154 159 161 160 160 161 158 152 194 189 194 193 190 185
194 200 174 171 69 71 86 69 58 72 97 93 73 107 123 123 124 121 126 138 152 157 157 156 153 155 160 157 156 157 159 162 162 162 165 168 168 167 172 267 184 196 199 198
128 109 104 100 91 68 76 67 58 55 57 75 76 85 103 102 100 108 128 148 147 145 149 152 152 161 162 154 152 154 156 161 160 166 168 172 176 178 176 177 187 228 232 210
58 117 148 128 92 75 74 78 67 51 49 53 66 81 94 103 109 115 109 110 109 115 129 138 144 152 153 153 153 154 153 157 158 157 161 166 168 168 173 179 182 187 195 242
81 86 96 95 92 80 79 88 86 60 61 75 77 80 88 99 93 84 86 107 115 126 141 144 151 157 151 148 146 149 154 152 147 149 152 157 162 165 173 177 181 186 197 207
119 112 106 102 98 87 81 97 113 103 77 81 97 96 91 90 83 75 73 96 119 129 139 145 152 149 149 151 148 148 146 152 148 146 157 164 167 174 178 178 184 195 212 210
140 152 153 148 141 118 87 79 91 94 97 95 94 90 94 104 112 112 102 96 88 75 86 137 141 142 143 146 144 142 146 153 159 163 161 162 164 166 166 172 182 189 203 209
103 109 108 107 113 114 106 95 92 94 94 98 97 96 97 101 108 102 94 97 105 110 258 143 134 138 142 145 139 141 147 149 151 152 154 159 158 160 167 174 181 185 183 180
95 96 94 88 87 96 101 100 92 84 88 101 99 91 83 81 96 98 91 92 198 208 178 140 139 144 148 145 132 139 146 149 151 153 151 155 163 170 176 180 181 185 189 194
103 98 95 92 82 78 88 97 103 96 88 102 111 118 121 104 103 112 110 95 303 15 119 130 136 146 148 143 132 137 145 149 153 159 160 161 165 169 173 179 183 188 193 199
104 102 99 96 91 69 51 77 98 101 96 91 96 105 106 98 92 86 124 201 213 138 121 136 146 143 139 133 133 138 145 149 151 152 157 163 168 176 184 186 191 200 200 201
111 110 104 104 104 87 52 54 71 96 106 113 124 131 139 163 153 141 209 270 167 132 120 134 137 132 132 128 131 137 140 146 152 157 164 172 178 181 185 189 193 196 200 208
111 105 101 94 87 81 64 31 41 68 86 85 96 128 136 124 62 303 183 159 138 126 119 122 119 120 121 125 129 133 140 148 155 157 161 165 170 174 180 184 188 200 207 212
122 114 106 101 98 105 120 72 60 57 64 57 39 28 41 133 156 193 136 126 127 123 116 120 118 114 113 121 127 131 138 149 153 153 161 166 170 169 174 178 182 192 206 218
135 135 141 144 149 152 143 116 99 68 94 83 25 16 28 56 85 88 102 117 123 118 115 116 119 112 112 117 125 130 137 142 132 131 150 156 157 161 171 178 183 192 211 233
111 108 103 83 68 102 115 118 126 142 157 147 120 334 6 58 73 81 93 100 109 110 109 109 113 116 119 122 124 128 133 134 134 138 146 150 155 165 178 181 185 202 225 241